Location: *
(18.5200°S, 46.4500°E)
Time: 09:50:13
(UTC+00:00)

Atlas Centaur 2 - Pass Details

Date: 19 July 2019
Orbit: 459 x 1311 km, 30.4° (Epoch: 25 August)

Event Time Altitude Azimuth Distance (km) Brightness Sun altitude
Rises 15:20:16 0° 241° (WSW) 3,431 6.1 -10.9°
Reaches altitude 10° 15:22:52 10° 232° (SW) 2,628 5.2 -11.5°
Maximum altitude 15:28:45 34° 167° (SSE) 1,675 3.5 -12.8°
Enters shadow 15:33:35 18° 114° (ESE) 2,533 4.0 -13.9°
